Voltar ao catálogo

AISHENXING LSP 1

AtivoCiênciaSSO
NORAD 60014·PAYLOAD·🇨🇳 China
Este nome de satélite ainda não foi confirmado por fontes oficiais.

Lançado Jun 6, 2024 de Jiuquan Satellite Launch Center

Loading…

Próximas Passagens (próximas 24 horas)

TLE

ObsoletoSource: Space-Track

Época: Aug 24, 2026, 07:03 UTC

1 60014U 24110C   26236.29396498  .00001738  00000-0  15034-3 0  9993
2 60014  97.5420 309.3147 0009309 280.0498  79.9675 14.98408334112000

Acompanhe AISHENXING LSP 1 em tempo real com AllMySat

Download on the App Store